Flag for Japan Weather past 2 weeks in Okayama, Japan

Now
81 °F

Warm.


Feels Like: 87 °F
Forecast: 74 / 92 °F
Wind: 2 mph from Southeast

Location: Takamatsu

Current Time: Jul 30, 2014 at 2:27:52 AM

Latest Report: Jul 30, 2014 at 1:00 AM


Visibility: N/A

Pressure: 29.91 "Hg

Humidity: 78%

Dew point: 74 °F

Location of OkayamaLocation

Historic Weather in Okayama — Graph

°F

Okayama temperature yesterday

Maximum temperature yesterday: 90 °F (at 3:00 PM)
Minimum temperature yesterday: 74 °F (at 5:00 AM)
Average temperature yesterday: 83 °F

Past Weeks' High & Low Weather Summary

 TemperatureHumidityPressure
High96 °F (Jul 25, 5:00 PM)91% (Jul 16, 3:00 AM)29.95 "Hg (Jul 16, 3:00 AM)
Low73 °F (Jul 28, 5:00 AM)41% (Jul 16, 1:00 PM)29.71 "Hg (Jul 24, 2:00 AM)
Average84 °F66%29.85 "Hg
* Reported Jul 15 1:00 AM — Jul 30 1:00 AM, Okayama, Weather by CustomWeather, © 2014

Note: Actual official high and low records may vary slightly from our data, if they occured in-between our weather recording intervals... More about our weather records

Advertising

Okayama weather history for previous 24 hours

 ConditionsComfort  
Time TempWeatherWind HumidityBarometerVisibility
1:00 AM
Jul 30
81 °FWarm.2 mph78%29.91 "HgN/A
12:00 AM83 °FWarm.2 mph74%29.91 "HgN/A
11:00 PM
Jul 29
83 °FWarm.1 mph72%29.90 "HgN/A
10:00 PM83 °FWarm.5 mph73%29.90 "HgN/A
9:00 PM84 °FPassing clouds.5 mph70%29.89 "Hg9 mi
8:00 PM84 °FWarm.3 mph69%29.88 "HgN/A
7:00 PM86 °FWarm.6 mph64%29.86 "HgN/A
6:00 PM87 °FPassing clouds.7 mph62%29.85 "Hg9 mi
5:00 PM88 °FHot.7 mph55%29.85 "HgN/A
4:00 PM90 °FHot.9 mph55%29.85 "HgN/A
3:00 PM90 °FSunny.9 mph53%29.85 "Hg9 mi
2:00 PM89 °FHot.10 mph52%29.86 "HgN/A
1:00 PM88 °FWarm.7 mph58%29.86 "HgN/A
12:00 PM88 °FPassing clouds.6 mph55%29.88 "Hg9 mi
11:00 AM87 °FWarm.7 mph54%29.89 "HgN/A
10:00 AM85 °FWarm.5 mph62%29.90 "HgN/A
9:00 AM82 °FOvercast.3 mph66%29.90 "Hg12 mi
8:00 AM80 °FWarm.5 mph74%29.89 "HgN/A
7:00 AM77 °FMild.1 mph76%29.89 "HgN/A
5:00 AM74 °FMild.3 mph76%29.87 "HgN/A
4:00 AM74 °FMild.3 mph76%29.85 "HgN/A
3:00 AM75 °FOvercast.3 mph77%29.84 "Hg9 mi
2:00 AM76 °FMild.2 mph77%29.82 "HgN/A
Weather by CustomWeather, © 2014

See weather overviewHow to use our weather pages